Location: Walton
(43.6794°N, 81.3017°W)
Time: 00:24:52
(UTC+00:00)

Cosmos 2180 Rocket - Pass Details

Date: 14 March 2026
Orbit: 952 x 1004 km, 82.9° (Epoch: 14 April)

Event Time Altitude Azimuth Distance (km) Brightness Sun altitude
Rises 00:31:53 0° 337° (NNW) 3,639 8.0 -12.1°
Reaches altitude 10° 00:35:10 10° 319° (NW) 2,686 7.6 -12.7°
Maximum altitude 00:39:07 18° 279° (W) 2,149 7.5 -13.4°
Drops below altitude 10° 00:43:03 10° 238° (WSW) 2,679 7.5 -14.1°
Sets 00:46:21 0° 221° (SW) 3,625 7.9 -14.7°
